Total_Precipitation_Accumulation
1.68 1.72 1.71 1.63 1.57 1.93 2.34 2.49 2.27 2.52 2.56 2.20 1.91 1.77 1.67 1.65 1.76 1.93 1.89 2.14 2.10 2.06 2.26 2.33 2.16 1.90 1.72 1.43 1.21 1.05 0.90 0.85 0.78 0.62 0.49 0.42 0.38 0.37 0.36 0.37 0.38 0.35 0.31
2.17 2.20 2.08 1.95 1.76 1.82 2.10 2.30 2.31 2.53 2.41 2.31 1.76 1.67 1.62 1.68 1.80 1.83 1.83 2.34 2.35 2.15 2.14 2.26 2.32 2.19 2.02 1.87 1.60 1.33 1.11 1.00 0.90 0.70 0.56 0.49 0.45 0.40 0.38 0.41 0.45 0.40 0.29
2.59 2.48 2.23 1.97 1.87 1.93 2.03 2.03 2.04 2.16 2.01 1.95 1.74 1.81 1.76 1.62 1.48 1.50 1.64 1.87 1.89 1.77 1.75 1.84 2.03 2.19 2.32 2.32 2.14 1.95 1.55 1.21 1.02 0.80 0.63 0.50 0.44 0.38 0.38 0.39 0.44 0.43 0.33
2.49 2.41 2.08 1.76 1.84 1.93 1.91 1.89 1.78 1.86 1.84 1.89 1.88 1.76 1.80 1.65 1.35 1.31 1.36 1.36 1.45 1.34 1.51 1.61 1.70 1.90 2.33 2.66 2.75 2.64 2.24 1.63 1.21 0.97 0.78 0.61 0.50 0.40 0.36 0.37 0.42 0.42 0.33
2.24 2.32 2.00 1.81 1.83 1.77 1.67 1.59 1.75 1.91 1.84 1.86 1.81 1.65 1.46 1.29 1.09 0.96 0.95 0.90 1.04 1.16 1.33 1.44 1.49 1.60 2.07 2.67 3.15 3.31 3.05 2.38 1.74 1.31 1.10 0.92 0.74 0.57 0.44 0.40 0.39 0.35 0.30
1.85 1.93 1.72 1.63 1.71 1.68 1.55 1.61 1.74 1.82 1.63 1.69 1.60 1.34 1.20 0.99 0.91 0.80 0.68 0.68 0.67 0.70 0.89 1.21 1.49 1.30 1.60 2.10 2.64 3.07 3.34 3.05 2.41 1.95 1.57 1.27 1.07 0.83 0.60 0.49 0.43 0.38 0.32
1.35 1.52 1.35 1.41 1.47 1.41 1.33 1.32 1.40 1.43 1.26 1.51 1.59 1.14 0.85 0.75 0.69 0.60 0.60 0.58 0.53 0.62 0.80 1.05 1.25 1.32 1.27 1.37 1.68 2.13 2.83 3.18 2.93 2.49 2.07 1.70 1.43 1.16 0.83 0.64 0.56 0.47 0.40
1.21 1.15 1.13 1.12 1.17 1.20 1.10 1.05 1.17 1.15 0.98 1.25 1.36 1.21 0.83 0.66 0.56 0.46 0.49 0.49 0.52 0.66 0.69 0.80 1.04 1.18 1.13 1.40 1.26 1.30 1.93 2.55 2.90 2.83 2.48 2.03 1.68 1.40 1.11 0.91 0.73 0.58 0.48
1.30 1.25 1.14 1.04 1.00 1.01 1.01 0.98 1.05 1.06 0.94 0.99 1.12 1.28 1.00 0.68 0.54 0.39 0.40 0.47 0.60 0.72 0.73 0.81 0.89 1.04 1.05 1.23 1.32 1.34 1.36 1.68 2.30 2.92 2.92 2.45 1.88 1.44 1.17 1.10 1.02 0.79 0.62
1.47 1.35 1.21 1.02 0.87 0.84 0.89 0.80 0.86 0.98 1.00 0.89 0.89 0.97 0.99 1.01 0.92 0.56 0.35 0.38 0.57 0.67 0.70 0.72 0.80 0.95 1.06 1.21 1.36 1.54 1.38 1.32 1.68 2.41 2.84 2.77 2.32 1.78 1.42 1.32 1.47 1.36 0.96
1.22 1.06 0.99 0.91 0.80 0.72 0.71 0.75 0.86 0.94 0.97 0.89 0.89 0.87 0.92 1.06 1.08 0.94 0.61 0.53 0.58 0.56 0.55 0.61 0.73 0.88 1.02 1.24 1.53 1.67 1.79 1.57 1.47 1.66 2.02 2.27 2.35 2.12 1.82 1.75 2.11 2.28 1.91
0.84 0.78 0.74 0.74 0.72 0.70 0.70 0.70 0.76 0.84 0.93 0.97 0.98 1.02 1.06 1.08 1.14 1.22 1.00 0.83 0.76 0.66 0.64 0.73 0.86 1.03 1.15 1.30 1.37 1.52 1.57 1.62 1.58 1.53 1.58 1.70 1.88 1.99 2.03 2.11 2.41 2.71 2.78
0.59 0.63 0.64 0.68 0.67 0.71 0.76 0.82 0.83 0.83 0.90 1.01 1.04 1.11 1.19 1.18 1.24 1.35 1.28 1.09 0.99 0.96 0.98 0.98 1.00 1.16 1.17 1.29 1.43 1.32 1.12 1.20 1.22 1.23 1.23 1.24 1.34 1.54 1.68 1.79 2.09 2.43 2.70
0.58 0.60 0.67 0.73 0.71 0.70 0.70 0.80 0.84 0.90 0.98 1.01 1.01 1.16 1.25 1.19 1.31 1.44 1.47 1.43 1.30 1.30 1.37 1.38 1.17 1.09 1.11 1.20 1.31 1.20 1.11 1.01 0.82 0.74 0.73 0.77 0.84 0.99 1.15 1.31 1.50 1.69 1.93
0.61 0.67 0.74 0.82 0.82 0.80 0.81 0.85 0.86 0.95 1.13 1.21 1.19 1.23 1.29 1.27 1.31 1.44 1.56 1.60 1.58 1.52 1.52 1.51 1.26 1.11 1.02 1.03 1.12 1.18 1.30 1.09 0.74 0.58 0.52 0.52 0.57 0.65 0.73 0.87 1.01 1.17 1.31
0.65 0.69 0.74 0.77 0.81 0.81 0.82 0.86 0.91 1.01 1.17 1.25 1.32 1.41 1.40 1.34 1.38 1.45 1.50 1.62 1.73 1.74 1.63 1.48 1.31 1.19 1.11 0.97 0.99 0.97 1.04 0.91 0.67 0.56 0.50 0.47 0.46 0.48 0.54 0.62 0.70 0.83 0.96
0.65 0.71 0.68 0.61 0.58 0.63 0.75 0.89 0.94 1.02 1.11 1.16 1.22 1.23 1.23 1.26 1.31 1.26 1.34 1.47 1.63 1.78 1.64 1.53 1.45 1.41 1.34 1.25 1.11 0.91 0.79 0.70 0.62 0.59 0.51 0.46 0.46 0.46 0.46 0.48 0.53 0.61 0.72
0.63 0.68 0.64 0.57 0.55 0.60 0.74 0.88 1.02 1.21 1.35 1.31 1.24 1.16 1.08 1.15 1.24 1.25 1.35 1.37 1.43 1.65 1.65 1.62 1.60 1.62 1.53 1.35 1.25 1.11 0.91 0.79 0.75 0.69 0.58 0.50 0.44 0.44 0.43 0.44 0.49 0.54 0.63
0.63 0.62 0.62 0.66 0.76 0.84 0.96 1.08 1.14 1.27 1.32 1.23 1.19 1.12 1.04 1.05 1.09 1.19 1.30 1.34 1.33 1.40 1.55 1.58 1.60 1.68 1.65 1.45 1.28 1.15 1.05 1.07 0.98 0.81 0.63 0.53 0.47 0.43 0.42 0.41 0.49 0.58 0.71
0.49 0.58 0.69 0.86 0.97 1.04 1.06 1.13 1.12 1.09 1.09 1.01 0.94 0.89 0.93 1.03 1.09 1.09 1.08 1.11 1.16 1.26 1.35 1.42 1.50 1.63 1.68 1.60 1.39 1.26 1.25 1.20 1.12 0.86 0.73 0.60 0.51 0.44 0.40 0.36 0.39 0.53 0.68
0.48 0.61 0.76 0.85 0.85 0.87 0.93 1.01 1.00 0.95 0.90 0.84 0.76 0.62 0.62 0.78 0.92 0.95 0.88 0.93 0.98 1.06 1.12 1.22 1.33 1.47 1.57 1.66 1.48 1.30 1.25 1.31 1.27 1.14 0.99 0.80 0.66 0.58 0.55 0.51 0.44 0.44 0.50
0.58 0.69 0.78 0.78 0.73 0.57 0.51 0.52 0.58 0.64 0.70 0.71 0.63 0.58 0.56 0.56 0.58 0.60 0.64 0.69 0.77 0.86 0.99 1.15 1.27 1.34 1.38 1.48 1.57 1.53 1.47 1.42 1.42 1.39 1.39 1.31 1.04 0.94 0.90 0.84 0.67 0.46 0.37
0.65 0.71 0.72 0.73 0.71 0.66 0.48 0.37 0.36 0.44 0.51 0.54 0.55 0.59 0.48 0.41 0.44 0.44 0.44 0.42 0.44 0.49 0.63 0.86 1.09 1.18 1.29 1.33 1.55 1.60 1.62 1.72 1.72 1.71 1.68 1.73 1.46 1.19 1.01 0.93 0.83 0.60 0.45
0.76 0.78 0.75 0.75 0.80 0.76 0.61 0.48 0.40 0.37 0.44 0.48 0.50 0.54 0.55 0.54 0.53 0.54 0.52 0.48 0.43 0.40 0.42 0.49 0.71 0.96 1.18 1.41 1.50 1.57 1.65 1.71 1.73 1.62 1.56 1.67 1.60 1.47 1.24 0.94 0.83 0.73 0.61
0.96 0.94 0.93 0.94 0.95 0.94 0.77 0.56 0.46 0.48 0.57 0.56 0.57 0.57 0.58 0.59 0.56 0.44 0.45 0.48 0.48 0.49 0.41 0.41 0.50 0.72 0.92 1.03 1.26 1.46 1.59 1.51 1.45 1.27 1.13 1.23 1.34 1.40 1.44 1.27 0.97 0.87 0.75
1.16 1.08 1.02 1.01 1.01 1.04 0.95 0.62 0.48 0.56 0.73 0.76 0.78 0.72 0.59 0.52 0.47 0.37 0.41 0.53 0.51 0.51 0.56 0.51 0.44 0.50 0.64 0.78 0.85 0.97 1.19 1.31 1.20 1.14 0.97 0.88 0.89 1.01 1.14 1.09 0.94 0.89 0.89